Regional Weather Roundup
Issued by NWS Albany, NY

Home | Current Version | Previous Version | Text Only | Print | Product List | Glossary On
Versions: 1 2 3 4 5 6 7 8 9 10 11 12 13 14 15 16 17 18 19 20 21 22 23 24 25 26 27 28
000
ASUS41 KALY 241510
RWRALY

NEW YORK STATE HOURLY WEATHER ROUNDUP
NATIONAL WEATHER SERVICE ALBANY NY
1100 AM EDT TUE APR 24 2018

NOTE: "FAIR" INDICATES FEW OR NO CLOUDS BELOW 12,000 FEET WITH NO
SIGNIFICANT WEATHER AND/OR NO OBSTRUCTIONS TO VISIBILITY.

NYZ032-033-038>043-046>054-057>066-NYZ062>081-082-084-241600-
EAST


CITY           SKY/WX    TMP DP  RH WIND       PRES   REMARKS
ALBANY         FAIR      61  29  29 S9        30.35F
GLENS FALLS    FAIR      59  32  36 S12       30.33F
POUGHKEEPSIE   FAIR      61  26  26 S9G17     30.36F
NEWBURGH       MOSUNNY   61  32  33 SW12G21   30.38F
MONTGOMERY     FAIR      62  30  29 S15       30.35F
WHITE PLAINS   FAIR      58  37  45 SE12      30.39F
ISLIP          PTSUNNY   59  39  47 S13       30.41F
NEW YORK CITY  PTSUNNY   61  33  35 SE14      30.39F
CENTRAL PARK   FAIR      62  35  36 E5        30.41F
$$

NYZ005>009-017-018-044>046-055-056-241600-
CENTRAL


CITY           SKY/WX    TMP DP  RH WIND       PRES   REMARKS
FULTON         FAIR      63  26  24 S13       30.25F
SYRACUSE       PTSUNNY   63  26  24 S12G20    30.26F
ROME           FAIR      64  25  22 SW8       30.29F
ELMIRA         FAIR      63  36  36 SW17      30.26F
BINGHAMTON     FAIR      58  26  29 S12       30.29F
MONTICELLO     FAIR      58  30  34 S15       30.35F
$$

NYZ026>034-041>043-087-241600-
NORTH


CITY           SKY/WX    TMP DP  RH WIND       PRES   REMARKS
WATERTOWN      FAIR      65  34  31 S9        30.24F
FORT DRUM      NOT AVBL
OGDENSBURG     FAIR      66  40  38 SW15G24   30.23S
MASSENA        FAIR      67  41  38 SW18G24   30.23F
SARANAC LAKE   FAIR      59  27  29 SW12G21   30.25F
PLATTSBURGH    FAIR      61  32  33 SE14      30.25F
$$

NYZ001>004-010>016-019>021-085-241600-
WEST


CITY           SKY/WX    TMP DP  RH WIND       PRES   REMARKS
NIAGARA FALLS  FAIR      62  40  44 S14       30.19F
BUFFALO        PTSUNNY   62  39  42 SW12      30.20F
DUNKIRK        CLOUDY    58  39  49 S15G21    30.18F
JAMESTOWN      PTSUNNY   54  39  57 S9G21     30.20F
WELLSVILLE     CLOUDY    57  35  43 S15       30.24F
ROCHESTER      PTSUNNY   65  38  36 SW16G23   30.22F
PENN YAN       FAIR      62  27  26 S13G21    30.25F
$$

             KEY
       WCI = WIND CHILL INDEX
       VSB = VISIBILITY
       HX  = HEAT INDEX
$$




USA.gov is the U.S. government's official web portal to all federal, state and local government web resources and services.